Location: Erdweis
(48.5167°N, 15.3500°E)
Time: 13:24:45
(UTC+00:00)

USA 234 - Pass Details

Date: 17 January 2021
Orbit: 1100 x 1107 km, 123.0° (Epoch: 01 March)

Event Time Altitude Azimuth Distance (km) Brightness Sun altitude
Exits shadow 17:19:03 25° 80° (E) 2,069 4.1 -16.9°
Maximum altitude 17:22:46 52° 17° (NNE) 1,356 3.5 -17.5°
Drops below altitude 10° 17:29:03 10° 304° (WNW) 2,969 6.2 -18.5°
Sets 17:31:36 0° 299° (WNW) 3,929 7.0 -19.0°
